AE7VB Weather Reports


Display with metric or nautical units.
time (UTC)temp
F
wind
direction
speed
MPH
gust
MPH
rain 1hr
in
rain 24hr
in
rain mn
in
humidity
%
barometer
mb
20260509180652 64 303 1.0 9.0 0.00 0.00 0.00 42 1025.6
20260509175651 63 283 3.0 7.0 0.00 0.00 0.00 47 1025.5
20260509174618 63 278 2.0 8.0 0.00 0.00 0.00 44 1025.4
20260509173617 62 14 2.0 10.0 0.00 0.00 0.00 43 1025.4
20260509172615 61 281 2.0 10.0 0.00 0.00 0.00 46 1025.4
20260509171614 61 291 1.0 9.0 0.00 0.00 0.00 47 1025.4
20260509170614 60 77 2.0 4.0 0.00 0.00 0.00 48 1025.3
20260509165613 59 275 2.0 3.0 0.00 0.00 0.00 50 1025.2
20260509164612 59 353 2.0 5.0 0.00 0.00 0.00 50 1025.3
20260509163611 59 296 2.0 6.0 0.00 0.00 0.00 52 1025.3
20260509162610 58 175 1.0 6.0 0.00 0.00 0.00 51 1025.2
20260509161608 57 303 2.0 3.0 0.00 0.00 0.00 55 1025.1
20260509160536 56 32 1.0 3.0 0.00 0.00 0.00 55 1025.1
20260509155504 56 76 1.0 3.0 0.00 0.00 0.00 54 1025.1
20260509154503 56 58 1.0 4.0 0.00 0.00 0.00 55 1025.2
20260509153501 56 27 1.0 3.0 0.00 0.00 0.00 54 1025.4
20260509152358 56 51 1.0 3.0 0.00 0.00 0.00 54 1025.5
20260509151357 55 23 2.0 3.0 0.00 0.00 0.00 54 1025.6
20260509150356 55 73 1.0 4.0 0.00 0.00 0.00 54 1025.7
20260509145355 54 57 1.0 4.0 0.00 0.00 0.00 54 1025.8
20260509144354 54 108 1.0 5.0 0.00 0.00 0.00 56 1025.8
20260509143353 52 77 2.0 6.0 0.00 0.00 0.00 57 1025.7
20260509142352 52 72 2.0 4.0 0.00 0.00 0.00 57 1025.3
20260509141351 51 66 1.0 4.0 0.00 0.00 0.00 60 1025.5
20260509140350 49 109 2.0 4.0 0.00 0.00 0.00 63 1025.1
20260509135318 48 76 1.0 5.0 0.00 0.00 0.00 64 1025.1
20260509134316 48 140 1.0 5.0 0.00 0.00 0.00 65 1025.1
20260509133316 48 104 1.0 5.0 0.00 0.00 0.00 64 1025.2
20260509132314 49 98 1.0 6.0 0.00 0.00 0.00 63 1025.3
20260509131242 49 70 2.0 8.0 0.00 0.00 0.00 60 1025.4
20260509130240 49 248 3.0 8.0 0.00 0.00 0.00 61 1025.4
20260509125239 49 244 3.0 7.0 0.00 0.00 0.00 59 1025.3
20260509124238 49 223 2.0 10.0 0.00 0.00 0.00 58 1025.2
20260509123237 49 222 3.0 10.0 0.00 0.00 0.00 58 1025.0
20260509122236 49 225 2.0 7.0 0.00 0.00 0.00 58 1024.8
20260509121235 49 229 2.0 6.0 0.00 0.00 0.00 58 1024.8
20260509120234 49 216 1.0 7.0 0.00 0.00 0.00 59 1024.8
20260509115233 49 226 2.0 7.0 0.00 0.00 0.00 58 1024.5
20260509114232 49 223 2.0 6.0 0.00 0.00 0.00 57 1024.6
20260509113231 49 220 2.0 6.0 0.00 0.00 0.00 57 1024.7
20260509112158 50 227 2.0 7.0 0.00 0.00 0.00 56 1024.8
20260509111157 50 235 2.0 7.0 0.00 0.00 0.00 55 1024.8
20260509110054 50 232 2.0 7.0 0.00 0.00 0.00 55 1024.8
20260509105052 51 243 2.0 7.0 0.00 0.00 0.00 54 1024.8
20260509104051 51 227 4.0 8.0 0.00 0.00 0.00 53 1025.0
20260509103050 51 228 2.0 8.0 0.00 0.00 0.00 53 1025.0
20260509102049 51 244 3.0 9.0 0.00 0.00 0.00 54 1025.0
20260509101049 50 231 3.0 6.0 0.00 0.00 0.00 55 1024.9
20260509100048 50 221 3.0 5.0 0.00 0.00 0.00 55 1024.5
20260509095015 51 223 2.0 6.0 0.00 0.00 0.00 54 1024.6
20260509094013 52 227 3.0 8.0 0.00 0.00 0.00 53 1024.7
20260509092940 52 226 2.0 9.0 0.00 0.00 0.00 52 1024.3
20260509091939 52 223 3.0 8.0 0.00 0.00 0.00 51 1024.2
20260509090938 52 224 3.0 8.0 0.00 0.00 0.00 51 1024.3
20260509085938 52 227 3.0 8.0 0.00 0.00 0.00 50 1024.4
20260509084937 53 220 2.0 7.0 0.00 0.00 0.00 49 1024.4
20260509083905 53 218 2.0 9.0 0.00 0.00 0.00 48 1024.5
20260509082904 54 230 2.0 11.0 0.00 0.00 0.00 47 1024.5
20260509081903 54 237 3.0 11.0 0.00 0.00 0.00 47 1024.5
20260509080901 54 224 2.0 9.0 0.00 0.00 0.00 46 1024.6
20260509075727 54 230 2.0 10.0 0.00 0.00 0.00 46 1024.2
20260509074725 54 237 2.0 9.0 0.00 0.00 0.00 45 1024.1
20260509073725 54 237 3.0 10.0 0.00 0.00 0.00 45 1024.1
20260509072652 53 233 2.0 8.0 0.00 0.00 0.00 46 1023.8
20260509071548 53 219 3.0 8.0 0.00 0.00 0.00 46 1023.6
20260509070547 52 231 2.0 8.0 0.00 0.00 0.00 46 1023.5
20260509065546 51 222 2.0 8.0 0.00 0.00 0.00 47 1023.3
20260509064545 51 228 3.0 8.0 0.00 0.00 0.00 48 1022.9
20260509063543 50 221 2.0 7.0 0.00 0.00 0.00 50 1022.8
20260509062542 50 220 2.0 5.0 0.00 0.00 0.00 52 1022.8
20260509061541 49 222 1.0 6.0 0.00 0.00 0.00 56 1022.7
20260509060509 48 220 2.0 6.0 0.00 0.00 0.00 58 1022.5
20260509055508 47 217 1.0 4.0 0.00 0.00 0.00 62 1022.4
20260509054506 48 166 1.0 3.0 0.00 0.00 0.00 66 1022.4
20260509053505 49 166 1.0 3.0 0.00 0.00 0.00 64 1022.6
20260509052504 49 165 0.0 1.0 0.00 0.00 0.00 63 1022.9
20260509051503 49 166 1.0 1.0 0.00 0.00 0.00 63 1022.5
20260509050501 50 165 0.0 2.0 0.00 0.00 0.00 63 1022.5
20260509045500 50 165 1.0 3.0 0.00 0.00 0.00 62 1022.5
20260509044459 50 165 1.0 3.0 0.00 0.00 0.00 62 1022.4
20260509043457 51 166 1.0 5.0 0.00 0.00 0.00 62 1022.2
20260509042456 51 163 0.0 0.0 0.00 0.00 0.00 63 1022.2
20260509041455 51 136 0.0 0.0 0.00 0.00 0.00 63 1022.1
20260509040454 52 136 0.0 0.0 0.00 0.00 0.00 62 1022.1
20260509035453 53 136 0.0 2.0 0.00 0.00 0.00 61 1021.8
20260509034452 54 136 1.0 2.0 0.00 0.00 0.00 61 1021.8
20260509033419 55 135 1.0 2.0 0.00 0.00 0.00 59 1021.5
20260509032418 56 136 1.0 3.0 0.00 0.00 0.00 56 1021.2
20260509031417 57 136 1.0 3.0 0.00 0.00 0.00 55 1021.3
20260509030344 59 120 1.0 3.0 0.00 0.00 0.00 53 1021.1
20260509025343 60 90 1.0 3.0 0.00 0.00 0.00 51 1021.2
20260509024340 61 85 2.0 4.0 0.00 0.00 0.00 47 1021.1
20260509023236 61 26 1.0 4.0 0.00 0.00 0.00 46 1021.0
20260509022235 61 27 2.0 4.0 0.00 0.00 0.00 46 1020.6
20260509021234 62 19 1.0 3.0 0.00 0.00 0.00 46 1020.6
20260509020233 62 34 1.0 5.0 0.00 0.00 0.00 46 1020.6
20260509015232 63 13 1.0 4.0 0.00 0.00 0.00 44 1020.5
20260509014231 63 46 1.0 9.0 0.00 0.00 0.00 44 1020.4
20260509013229 64 21 1.0 9.0 0.00 0.00 0.00 42 1020.0
20260509012157 65 7 2.0 5.0 0.00 0.00 0.00 41 1020.1
20260509011156 66 358 1.0 5.0 0.00 0.00 0.00 37 1019.9
20260509010156 69 319 2.0 13.0 0.00 0.00 0.00 34 1020.0
20260509005155 69 300 2.0 13.0 0.00 0.00 0.00 29 1020.0
20260509004154 68 296 2.0 12.0 0.00 0.00 0.00 30 1019.8
20260509003122 66 300 2.0 14.0 0.00 0.00 0.00 35 1019.6
20260509002121 66 296 3.0 16.0 0.00 0.00 0.00 34 1019.6
20260509001120 66 289 3.0 16.0 0.00 0.00 0.00 35 1019.7
20260509000119 66 292 2.0 8.0 0.00 0.00 0.00 34 1019.7
20260508235118 67 294 2.0 9.0 0.00 0.00 0.00 35 1019.9
20260508234045 67 289 2.0 9.0 0.00 0.00 0.00 32 1019.9
20260508233045 67 288 2.0 9.0 0.00 0.00 0.00 30 1020.0
20260508232044 67 307 2.0 10.0 0.00 0.00 0.00 33 1020.1
20260508231042 68 306 3.0 10.0 0.00 0.00 0.00 30 1020.1
20260508230041 67 285 2.0 10.0 0.00 0.00 0.00 32 1019.7
20260508225040 67 296 2.0 10.0 0.00 0.00 0.00 27 1019.7
20260508224039 68 287 2.0 9.0 0.00 0.00 0.00 29 1020.1
20260508223038 68 280 2.0 8.0 0.00 0.00 0.00 28 1020.2
20260508222038 68 282 2.0 8.0 0.00 0.00 0.00 29 1020.2
20260508221037 68 291 2.0 13.0 0.00 0.00 0.00 32 1020.2
20260508220036 67 297 2.0 13.0 0.00 0.00 0.00 29 1020.1
20260508215035 67 273 3.0 12.0 0.00 0.00 0.00 27 1020.1
20260508214003 68 248 2.0 12.0 0.00 0.00 0.00 25 1020.2
20260508213001 67 263 2.0 13.0 0.00 0.00 0.00 26 1020.1
20260508212000 66 257 2.0 11.0 0.00 0.00 0.00 28 1020.4
20260508210959 67 263 3.0 10.0 0.00 0.00 0.00 27 1020.5
20260508205927 67 261 2.0 9.0 0.00 0.00 0.00 26 1020.6
20260508204925 66 260 2.0 9.0 0.00 0.00 0.00 26 1020.6
20260508203924 67 264 3.0 10.0 0.00 0.00 0.00 27 1020.3
20260508202923 67 252 2.0 10.0 0.00 0.00 0.00 28 1020.3
20260508201922 67 259 2.0 12.0 0.00 0.00 0.00 27 1020.7
20260508200921 67 255 2.0 12.0 0.00 0.00 0.00 27 1020.7
20260508195920 67 271 2.0 11.0 0.00 0.00 0.00 30 1020.4
20260508194919 66 251 3.0 11.0 0.00 0.00 0.00 27 1020.6
20260508193918 66 267 2.0 10.0 0.00 0.00 0.00 28 1020.7
20260508192846 67 253 2.0 15.0 0.00 0.00 0.00 28 1020.8
20260508191711 65 257 3.0 15.0 0.00 0.00 0.00 29 1020.7
20260508190639 65 255 3.0 13.0 0.00 0.00 0.00 26 1020.7
20260508185637 64 271 2.0 10.0 0.00 0.00 0.00 30 1020.7
20260508184636 65 253 2.0 14.0 0.00 0.00 0.00 27 1020.7
20260508183634 64 256 2.0 14.0 0.00 0.00 0.00 24 1020.6
20260508182634 65 234 3.0 11.0 0.00 0.00 0.00 22 1020.6
20260508181633 65 245 2.0 11.0 0.00 0.00 0.00 26 1020.7